< < Back
Terminal Aerodrome Forecast


Current Version              Previous Versions:   1  2  3  4  5  6  7  8  9  

Terminal Aerodrome Forecast

655
FTUS44 KHUN 010520
TAFHSV
TAF
KHSV 010520Z 0106/0206 VRB03KT P6SM BKN120
      TEMPO 0110/0113 5SM BR
     FM011600 22010KT P6SM SCT080
     FM020000 18005KT P6SM SCT120=

Latest METAR

783
SAUS80 KWBC 011200 RRE
MTRHSV
METAR KHSV 011153Z 00000KT 10SM SCT170 23/21 A3011 RMK AO2 SLP188 70056
T02280211 10239 20228 53008 $


USA.gov is the U.S. government's official web portal to all federal, state and local government web resources and services.